Regional Weather Roundup
Issued by NWS Kansas City/Pleasant Hill, MO

Home | Current Version | Previous Version | Text Only | Print | Product List | Glossary On
Versions: 1 2 3 4 5 6 7 8 9 10 11 12 13 14 15 16 17 18 19 20 21 22 23 24 25 26 27 28 29 30 31 32 33 34 35 36 37 38 39 40 41 42 43 44 45 46 47 48 49 50
000
ASUS43 KEAX 180910
RWREAX

WEATHER ROUNDUP FOR EASTERN KANSAS AND NORTHWEST MISSOURI
NATIONAL WEATHER SERVICE KANSAS CITY/PLEASANT HILL MO
400 AM CDT FRI AUG 18 2017

KSZ040-057-103>105-MOZ028-029-037-043-181000-
...KANSAS CITY METROPOLITAN AREA...

CITY           SKY/WX    TMP DP  RH WIND       PRES   REMARKS
K.C. INTL      MOCLDY    64  61  90 S6        29.95F
K.C. DOWNTOWN  PTCLDY    69  64  84 CALM      29.94F
LEES SUMMIT    PTCLDY    68  62  81 SW6       29.96F
OLATHE - IXD   PTCLDY    64  60  87 S3        29.96F
OLATHE - OJC   PTCLDY    66  61  84 SW5       29.96F
LAWRENCE       MOCLDY    62  62 100 CALM      29.95F

$$

MOZ001>008-011>017-020>025-030>033-038>040-044>046-053-054-181000-
...NORTHERN AND CENTRAL MISSOURI...

CITY           SKY/WX    TMP DP  RH WIND       PRES   REMARKS
ST. JOSEPH     PTCLDY    59  59 100 S5        29.93F FOG
MOSBY          MOSUNNY   61  61 100 CALM      29.95F
WARRENSBURG    MOCLDY    61  59  94 CALM      29.95F
WHITEMAN AFB   PTCLDY    64  64 100 S3        29.95F
CLINTON        CLOUDY    63  63 100 CALM      29.98S
SEDALIA        PTCLDY    65  65 100 SW7       29.98S
WARSAW         NOT AVBL
CHILLICOTHE      N/A     59  59 100 CALM      29.95F
KIRKSVILLE     CLEAR     61  58  90 W5        29.94S

$$

MOZ041-047>049-056>058-063>065-088>090-097-181000-
...EASTERN AND SOUTHERN MISSOURI...

CITY           SKY/WX    TMP DP  RH WIND       PRES   REMARKS
ST. LOUIS INTL PTCLDY    68  64  87 W5        29.92R
SPIRIT OF STL  CLEAR     66  64  93 W6        29.92R
COLUMBIA       CLOUDY    64  62  93 W5        29.96R
JEFFERSON CITY PTCLDY    64  64 100 CALM      29.95S
ROLLA          CLEAR     64  62  93 W7        29.98S
OSAGE BEACH    CLEAR     61  61 100 CALM      29.98S
SPRINGFIELD    CLEAR     62  61  96 SW3       30.00F
BRANSON        CLEAR     68  66  94 CALM      30.03S
JOPLIN         CLEAR     65  62  90 S5        30.00S
WEST PLAINS    CLEAR     64  62  93 W3        30.01S

$$

IAZ060-094-KSZ022-034>040-054-083-096-NEZ052-066-093-181000-
...KANSAS...SOUTHEAST NEBRASKA AND IOWA...

CITY           SKY/WX    TMP DP  RH WIND       PRES   REMARKS
TOPEKA         CLOUDY    64  62  93 CALM      29.94F
MANHATTAN      CLOUDY    70  64  81 SW12      29.93F
EMPORIA        CLOUDY    70  60  70 SW9       29.98R
CHANUTE        MOCLDY    66  63  90 S5        29.98F
WICHITA        CLOUDY    70  65  84 NE8       29.98F
OMAHA          CLOUDY    69  61  75 NE5       29.94R
LINCOLN        CLOUDY    68  61  78 CALM      29.95F
FALLS CITY     CLOUDY    61  58  90 CALM      29.91F
LAMONI         PTCLDY    63  59  87 W3        29.93F
DES MOINES     PTCLDY    62  59  90 SW3       29.89F

$$




USA.gov is the U.S. government's official web portal to all federal, state and local government web resources and services.